User: anonymous   Login
Location: Grange Verzio
(44.5000°N, 6.9833°E)
Time: 13:15:16
(UTC+00:00)
Language:

CP3 - Orbit

View from above orbital plane
View from above orbital plane
View from above satellite
View from above satellite

Ground track
Ground track

The orbit data is extracted from the following two-line orbital elements,

1 31129U 07012N   24053.86633621  .00001622  00000-0  32825-3 0  9999
2 31129  98.3473   6.6007 0090172 176.1683 184.0227 14.60182308895090
Epoch (UTC): 22 February 2024 20:47:31
Eccentricity: 0.0090172
inclination: 98.3473°
perigee height: 629 km
apogee height: 756 km
right ascension of ascending node: 6.6007°
argument of perigee: 176.1683°
revolutions per day: 14.60182308
mean anomaly at epoch: 184.0227°
orbit number at epoch: 89509

The dashed part of the orbit path shows where the satellite is in the earth's shadow,  

DLR